Madison, WI

12:04 PM CDT on September 15, 2019 (GMT -0500)
Dane County Regional-Truax

Weather History for KMSN - July, 2019

Change the Weather History Date:

Saturday, July 13, 2019

  Actual Average Record
Temperature  
Mean Temperature 79 °F 72 °F  
Max Temperature 90 °F 82 °F 106 °F (1936)
Min Temperature 68 °F 61 °F 46 °F (1964)
Degree Days  
Heating Degree Days 0 0  
Month to date heating degree days 0 0  
Since 1 June heating degree days 42 60  
Since 1 July heating degree days 0 0  
Cooling Degree Days 14 7  
Month to date cooling degree days 131 89  
Year to date cooling degree days 249 239  
Since 1 June cooling degree days 229 209  
Growing Degree Days 30 (Base 50)    
Moisture  
Dew Point 65 °F    
Average Humidity 64    
Maximum Humidity 84    
Minimum Humidity 43    
Precipitation  
Precipitation 0.00 in 0.14 in 1.40 in (1912)
Month to date precipitation 2.14 1.83  
Year to date precipitation 23.11 18.20  
Snow  
Snow 0.00 in 0.00 in 0.00 in (2018)
Month to date snowfall 0.0 0.0  
Since 1 June snowfall 0.0 0.0  
Since 1 July snowfall 0.0 0.0  
Snow Depth 0.00 in    
Sea Level Pressure  
Sea Level Pressure 29.97 in    
Wind  
Wind Speed 4 mph (NW)    
Max Wind Speed 14 mph    
Max Gust Speed 20 mph    
Visibility 10 miles    
Events      
T = Trace of Precipitation, MM = Missing Value Source: NWS Daily Summary

Daily Weather History Graph

Daily Weather History Graph

Search for Another Location

Airport or City:

Astronomy

Jul. 13, 2019 Rise Set
Actual Time 5:29 AM CDT 8:36 PM CDT
Civil Twilight 4:55 AM CDT 9:10 PM CDT
Nautical Twilight 4:10 AM CDT 9:54 PM CDT
Astronomical Twilight 3:17 AM CDT 10:47 PM CDT
Moon 5:58 PM CDT (7/13) 2:51 AM CDT (7/13)
Length of Visible Light 16h 15m
Length of Day
15h 06m
Waxing Gibbous, 90% of the Moon is Illuminated
Jul 13
Waxing Gibbous
Jul 16
Full
Jul 24
Last Quarter
Jul 31
New
Aug 7
First Quarter

Hourly Weather History & Observations

Time (CDT) Temp. Heat Index Dew Point Humidity Pressure Visibility Wind Dir Wind Speed Gust Speed Precip Events Conditions
12:53 AM 77.0 °F - 64.0 °F 64% 29.89 in 10.0 mi SW 5.8 mph - N/A   Clear
1:53 AM 75.9 °F - 64.9 °F 69% 29.88 in 10.0 mi Variable 4.6 mph - N/A   Clear
2:53 AM 75.9 °F - 64.0 °F 67% 29.88 in 10.0 mi WSW 5.8 mph - N/A   Scattered Clouds
3:53 AM 75.0 °F - 64.9 °F 71% 29.89 in 10.0 mi Calm Calm - N/A   Clear
4:53 AM 73.9 °F - 64.0 °F 71% 29.91 in 10.0 mi Calm Calm - N/A   Partly Cloudy
5:53 AM 73.0 °F - 64.0 °F 73% 29.92 in 10.0 mi Calm Calm - N/A   Mostly Cloudy
6:53 AM 75.0 °F - 64.9 °F 71% 29.94 in 10.0 mi Calm Calm - N/A   Partly Cloudy
7:53 AM 77.0 °F - 66.9 °F 71% 29.95 in 10.0 mi Calm Calm - N/A   Scattered Clouds
8:53 AM 80.1 °F 82.9 °F 69.1 °F 69% 29.96 in 10.0 mi NW 4.6 mph - N/A   Scattered Clouds
9:53 AM 82.0 °F 86.3 °F 71.1 °F 69% 29.97 in 10.0 mi NNW 5.8 mph - N/A   Mostly Cloudy
10:53 AM 82.9 °F 87.0 °F 70.0 °F 65% 30.00 in 10.0 mi WNW 5.8 mph - N/A   Mostly Cloudy
11:53 AM 84.9 °F 88.2 °F 68.0 °F 57% 30.01 in 10.0 mi NNW 8.1 mph - N/A   Mostly Cloudy
12:53 PM 86.0 °F 88.8 °F 66.9 °F 53% 30.01 in 10.0 mi NW 10.4 mph - N/A   Mostly Cloudy
1:53 PM 84.0 °F 85.8 °F 64.9 °F 53% 29.96 in 10.0 mi NNE 10.4 mph 18.4 mph N/A   Mostly Cloudy
2:53 PM 88.0 °F 89.3 °F 64.0 °F 45% 29.98 in 10.0 mi Variable 3.5 mph - N/A   Mostly Cloudy
3:53 PM 88.0 °F 88.7 °F 63.0 °F 43% 29.98 in 10.0 mi WNW 4.6 mph - N/A   Mostly Cloudy
4:53 PM 89.1 °F 91.0 °F 64.9 °F 45% 29.99 in 10.0 mi North 3.5 mph - N/A   Mostly Cloudy
5:53 PM 86.0 °F 88.2 °F 66.0 °F 51% 29.99 in 10.0 mi NNW 6.9 mph - N/A   Mostly Cloudy
6:53 PM 82.9 °F 85.0 °F 66.0 °F 56% 29.99 in 10.0 mi North 4.6 mph - N/A   Mostly Cloudy
7:53 PM 80.1 °F 81.7 °F 64.0 °F 58% 30.00 in 10.0 mi North 5.8 mph - N/A   Mostly Cloudy
8:53 PM 77.0 °F - 62.1 °F 60% 30.02 in 10.0 mi Calm Calm - N/A   Mostly Cloudy
9:53 PM 73.0 °F - 63.0 °F 71% 30.04 in 10.0 mi Calm Calm - N/A   Mostly Cloudy
10:53 PM 71.1 °F - 64.0 °F 78% 30.05 in 10.0 mi Calm Calm - N/A   Mostly Cloudy
11:53 PM 70.0 °F - 64.0 °F 81% 30.06 in 10.0 mi Calm Calm - N/A   Clear